Time,TemperatureF,DewpointF,PressureIn,WindDirection,WindDirectionDegrees,WindSpeedMPH,WindSpeedGustMPH,Humidity,HourlyPrecipIn,Conditions,Clouds,dailyrainin,SoftwareType,DateUTC
2013-01-27 00:19:00,2.3,-0.2,30.05,WNW,292,3.7,-999.0,89,-99.99,,,0.00,Acu-Link.com,2013-01-27 05:19:00,
2013-01-27 00:34:00,2.3,-0.2,30.05,West,270,11.9,-999.0,89,-99.99,,,0.00,Acu-Link.com,2013-01-27 05:34:00,
2013-01-27 00:49:00,2.1,-0.4,30.06,WNW,292,4.7,-999.0,89,-99.99,,,0.00,Acu-Link.com,2013-01-27 05:49:00,
2013-01-27 01:04:00,2.1,-0.4,30.06,WSW,247,8.3,-999.0,89,-99.99,,,0.00,Acu-Link.com,2013-01-27 06:04:00,
2013-01-27 01:20:00,1.8,-0.9,30.07,WSW,247,10.4,-999.0,88,-99.99,,,0.00,Acu-Link.com,2013-01-27 06:20:00,
2013-01-27 01:35:00,1.4,-1.3,30.07,West,270,3.7,-999.0,88,-99.99,,,0.00,Acu-Link.com,2013-01-27 06:35:00,
2013-01-27 01:50:00,1.0,-1.5,30.08,WNW,292,7.8,-999.0,89,-99.99,,,0.00,Acu-Link.com,2013-01-27 06:50:00,
2013-01-27 02:05:00,0.7,-1.8,30.09,NW,315,8.3,-999.0,89,-99.99,,,0.00,Acu-Link.com,2013-01-27 07:05:00,
2013-01-27 02:20:00,0.1,-2.4,30.09,South,180,6.3,-999.0,89,-99.99,,,0.00,Acu-Link.com,2013-01-27 07:20:00,
2013-01-27 02:36:00,0.0,-2.5,30.10,SW,225,7.3,-999.0,89,-99.99,,,0.00,Acu-Link.com,2013-01-27 07:36:00,
2013-01-27 02:51:00,-0.4,-2.9,30.10,SW,225,10.9,-999.0,89,-99.99,,,0.00,Acu-Link.com,2013-01-27 07:51:00,
2013-01-27 03:06:00,-0.8,-3.2,30.11,SW,225,4.7,-999.0,89,-99.99,,,0.00,Acu-Link.com,2013-01-27 08:06:00,
2013-01-27 03:21:00,-0.8,-3.2,30.11,West,270,4.7,-999.0,89,-99.99,,,0.00,Acu-Link.com,2013-01-27 08:21:00,
2013-01-27 03:37:00,-0.9,-3.3,30.12,West,270,3.7,-999.0,89,-99.99,,,0.00,Acu-Link.com,2013-01-27 08:37:00,
2013-01-27 03:52:00,-1.1,-3.5,30.12,NNE,22,4.2,-999.0,89,-99.99,,,0.00,Acu-Link.com,2013-01-27 08:52:00,
2013-01-27 04:16:00,-1.1,-3.5,30.12,SW,225,6.3,-999.0,89,-99.99,,,0.00,Acu-Link.com,2013-01-27 09:16:00,
2013-01-27 04:31:00,-1.3,-3.7,30.13,WNW,292,3.2,-999.0,89,-99.99,,,0.00,Acu-Link.com,2013-01-27 09:31:00,
2013-01-27 04:46:00,-1.8,-4.5,30.13,WSW,247,4.2,-999.0,88,-99.99,,,0.00,Acu-Link.com,2013-01-27 09:46:00,
2013-01-27 05:01:00,-2.2,-4.9,30.14,SW,225,3.2,-999.0,88,-99.99,,,0.00,Acu-Link.com,2013-01-27 10:01:00,
2013-01-27 05:17:00,-2.4,-5.1,30.15,NW,315,5.3,-999.0,88,-99.99,,,0.00,Acu-Link.com,2013-01-27 10:17:00,
2013-01-27 05:32:00,-2.9,-5.6,30.15,NW,315,6.3,-999.0,88,-99.99,,,0.00,Acu-Link.com,2013-01-27 10:32:00,
2013-01-27 05:47:00,-3.5,-6.1,30.15,West,270,4.2,-999.0,88,-99.99,,,0.00,Acu-Link.com,2013-01-27 10:47:00,
2013-01-27 06:02:00,-3.6,-6.2,30.17,West,270,7.3,-999.0,88,-99.99,,,0.00,Acu-Link.com,2013-01-27 11:02:00,
2013-01-27 06:17:00,-3.8,-6.4,30.17,NE,45,2.7,-999.0,88,-99.99,,,0.00,Acu-Link.com,2013-01-27 11:17:00,
2013-01-27 06:33:00,-4.0,-6.6,30.18,WSW,247,4.2,-999.0,88,-99.99,,,0.00,Acu-Link.com,2013-01-27 11:33:00,
2013-01-27 06:48:00,-4.5,-7.1,30.18,NW,315,3.7,-999.0,88,-99.99,,,0.00,Acu-Link.com,2013-01-27 11:48:00,
2013-01-27 07:03:00,-5.1,-7.7,30.19,West,270,3.2,-999.0,88,-99.99,,,0.00,Acu-Link.com,2013-01-27 12:03:00,
2013-01-27 07:18:00,-5.3,-7.7,30.20,West,270,0.0,-999.0,89,-99.99,,,0.00,Acu-Link.com,2013-01-27 12:18:00,
2013-01-27 07:34:00,-5.4,-7.8,30.21,WSW,247,3.7,-999.0,89,-99.99,,,0.00,Acu-Link.com,2013-01-27 12:34:00,
2013-01-27 07:49:00,-4.4,-7.0,30.21,SW,225,3.7,-999.0,88,-99.99,,,0.00,Acu-Link.com,2013-01-27 12:49:00,
2013-01-27 08:04:00,-3.1,-6.0,30.21,WSW,247,3.7,-999.0,87,-99.99,,,0.00,Acu-Link.com,2013-01-27 13:04:00,
2013-01-27 08:19:00,-2.7,-6.1,30.22,West,270,8.3,-999.0,85,-99.99,,,0.00,Acu-Link.com,2013-01-27 13:19:00,
2013-01-27 08:34:00,-2.0,-5.6,30.21,West,270,7.8,-999.0,84,-99.99,,,0.00,Acu-Link.com,2013-01-27 13:34:00,
2013-01-27 08:50:00,-0.9,-4.8,30.22,West,270,4.7,-999.0,83,-99.99,,,0.00,Acu-Link.com,2013-01-27 13:50:00,
2013-01-27 09:05:00,-0.2,-4.4,30.22,West,270,4.2,-999.0,82,-99.99,,,0.00,Acu-Link.com,2013-01-27 14:05:00,
2013-01-27 09:20:00,-0.4,-4.8,30.23,NW,315,3.7,-999.0,81,-99.99,,,0.00,Acu-Link.com,2013-01-27 14:20:00,
2013-01-27 09:35:00,1.2,-4.0,30.21,WSW,247,4.2,-999.0,78,-99.99,,,0.00,Acu-Link.com,2013-01-27 14:35:00,
2013-01-27 09:50:00,1.6,-3.9,30.23,SW,225,6.8,-999.0,77,-99.99,,,0.00,Acu-Link.com,2013-01-27 14:50:00,
2013-01-27 10:06:00,2.8,-3.3,30.24,West,270,6.8,-999.0,75,-99.99,,,0.00,Acu-Link.com,2013-01-27 15:06:00,
2013-01-27 10:21:00,2.3,-3.5,30.24,West,270,6.8,-999.0,76,-99.99,,,0.00,Acu-Link.com,2013-01-27 15:21:00,
2013-01-27 10:36:00,3.7,-2.4,30.24,West,270,5.8,-999.0,75,-99.99,,,0.00,Acu-Link.com,2013-01-27 15:36:00,
2013-01-27 10:51:00,5.7,-1.9,30.24,West,270,4.7,-999.0,70,-99.99,,,0.00,Acu-Link.com,2013-01-27 15:51:00,
2013-01-27 11:07:00,5.0,-2.3,30.24,West,270,5.3,-999.0,71,-99.99,,,0.00,Acu-Link.com,2013-01-27 16:07:00,
2013-01-27 11:22:00,6.6,-1.7,30.22,West,270,8.3,-999.0,68,-99.99,,,0.00,Acu-Link.com,2013-01-27 16:22:00,
2013-01-27 11:37:00,6.8,-1.8,30.22,WSW,247,6.8,-999.0,67,-99.99,,,0.00,Acu-Link.com,2013-01-27 16:37:00,
2013-01-27 11:52:00,7.2,-1.4,30.22,WSW,247,10.4,-999.0,67,-99.99,,,0.00,Acu-Link.com,2013-01-27 16:52:00,
2013-01-27 12:07:00,7.5,-1.1,30.22,SW,225,14.5,-999.0,67,-99.99,,,0.00,Acu-Link.com,2013-01-27 17:07:00,
2013-01-27 12:23:00,7.3,-1.6,30.22,West,270,8.3,-999.0,66,-99.99,,,0.00,Acu-Link.com,2013-01-27 17:23:00,
2013-01-27 12:38:00,6.8,-2.1,30.22,WNW,292,9.4,-999.0,66,-99.99,,,0.00,Acu-Link.com,2013-01-27 17:38:00,
2013-01-27 12:53:00,5.5,-3.7,30.23,NNW,337,17.6,-999.0,65,-99.99,,,0.00,Acu-Link.com,2013-01-27 17:53:00,
2013-01-27 13:08:00,6.8,-2.1,30.24,NW,315,4.2,-999.0,66,-99.99,,,0.00,Acu-Link.com,2013-01-27 18:08:00,
2013-01-27 13:23:00,6.8,-3.1,30.24,SW,225,5.3,-999.0,63,-99.99,,,0.00,Acu-Link.com,2013-01-27 18:23:00,
2013-01-27 13:39:00,7.0,-3.2,30.24,West,270,11.4,-999.0,62,-99.99,,,0.00,Acu-Link.com,2013-01-27 18:39:00,
2013-01-27 13:54:00,7.3,-2.9,30.25,WSW,247,6.8,-999.0,62,-99.99,,,0.00,Acu-Link.com,2013-01-27 18:54:00,
2013-01-27 14:09:00,8.6,-2.1,30.25,West,270,10.9,-999.0,61,-99.99,,,0.00,Acu-Link.com,2013-01-27 19:09:00,
2013-01-27 14:24:00,9.5,-2.6,30.25,West,270,9.4,-999.0,57,-99.99,,,0.00,Acu-Link.com,2013-01-27 19:24:00,
2013-01-27 14:40:00,8.8,-3.7,30.25,West,270,6.3,-999.0,56,-99.99,,,0.00,Acu-Link.com,2013-01-27 19:40:00,
2013-01-27 14:55:00,9.1,-3.7,30.25,West,270,9.4,-999.0,55,-99.99,,,0.00,Acu-Link.com,2013-01-27 19:55:00,
2013-01-27 15:10:00,10.0,-3.3,30.26,NNW,337,3.7,-999.0,54,-99.99,,,0.00,Acu-Link.com,2013-01-27 20:10:00,
2013-01-27 15:25:00,9.5,-3.4,30.26,SW,225,5.3,-999.0,55,-99.99,,,0.00,Acu-Link.com,2013-01-27 20:25:00,
2013-01-27 15:40:00,9.9,-3.4,30.26,WNW,292,9.9,-999.0,54,-99.99,,,0.00,Acu-Link.com,2013-01-27 20:40:00,
2013-01-27 15:56:00,8.4,-3.7,30.26,WSW,247,7.8,-999.0,57,-99.99,,,0.00,Acu-Link.com,2013-01-27 20:56:00,
2013-01-27 16:11:00,6.3,-4.2,30.28,WSW,247,8.9,-999.0,61,-99.99,,,0.00,Acu-Link.com,2013-01-27 21:11:00,
2013-01-27 16:26:00,6.1,-4.1,30.28,West,270,6.8,-999.0,62,-99.99,,,0.00,Acu-Link.com,2013-01-27 21:26:00,
2013-01-27 16:41:00,5.0,-4.5,30.28,West,270,5.8,-999.0,64,-99.99,,,0.00,Acu-Link.com,2013-01-27 21:41:00,
2013-01-27 16:56:00,4.6,-4.5,30.29,SW,225,5.3,-999.0,65,-99.99,,,0.00,Acu-Link.com,2013-01-27 21:56:00,
2013-01-27 17:12:00,4.3,-4.8,30.29,WSW,247,6.3,-999.0,65,-99.99,,,0.00,Acu-Link.com,2013-01-27 22:12:00,
2013-01-27 17:27:00,3.7,-5.1,30.30,WSW,247,7.8,-999.0,66,-99.99,,,0.00,Acu-Link.com,2013-01-27 22:27:00,
2013-01-27 17:42:00,3.4,-5.1,30.31,West,270,4.7,-999.0,67,-99.99,,,0.00,Acu-Link.com,2013-01-27 22:42:00,
2013-01-27 17:57:00,3.2,-4.9,30.32,West,270,3.2,-999.0,68,-99.99,,,0.00,Acu-Link.com,2013-01-27 22:57:00,
2013-01-27 18:13:00,2.3,-5.2,30.32,WSW,247,4.7,-999.0,70,-99.99,,,0.00,Acu-Link.com,2013-01-27 23:13:00,
2013-01-27 18:28:00,1.2,-5.7,30.31,West,270,1.7,-999.0,72,-99.99,,,0.00,Acu-Link.com,2013-01-27 23:28:00,
2013-01-27 18:43:00,0.0,-6.0,30.33,West,270,2.7,-999.0,75,-99.99,,,0.00,Acu-Link.com,2013-01-27 23:43:00,
2013-01-27 18:59:00,-1.1,-6.8,30.34,West,270,2.2,-999.0,76,-99.99,,,0.00,Acu-Link.com,2013-01-27 23:59:00,
2013-01-27 19:15:00,-2.0,-7.4,30.33,West,270,1.7,-999.0,77,-99.99,,,0.00,Acu-Link.com,2013-01-28 00:15:00,
2013-01-27 19:30:00,-2.9,-7.8,30.33,NNW,337,2.2,-999.0,79,-99.99,,,0.00,Acu-Link.com,2013-01-28 00:30:00,
2013-01-27 19:46:00,-4.0,-8.6,30.32,WNW,292,1.7,-999.0,80,-99.99,,,0.00,Acu-Link.com,2013-01-28 00:46:00,
2013-01-27 20:01:00,-4.7,-9.0,30.32,NW,315,1.7,-999.0,81,-99.99,,,0.00,Acu-Link.com,2013-01-28 01:01:00,
2013-01-27 20:17:00,-4.5,-8.3,30.32,NNW,337,2.7,-999.0,83,-99.99,,,0.00,Acu-Link.com,2013-01-28 01:17:00,
2013-01-27 20:32:00,-5.6,-9.4,30.31,NW,315,0.0,-999.0,83,-99.99,,,0.00,Acu-Link.com,2013-01-28 01:32:00,
2013-01-27 20:47:00,-6.5,-10.0,30.31,West,270,0.0,-999.0,84,-99.99,,,0.00,Acu-Link.com,2013-01-28 01:47:00,
2013-01-27 21:02:00,-7.2,-10.3,30.31,West,270,0.0,-999.0,86,-99.99,,,0.00,Acu-Link.com,2013-01-28 02:02:00,
2013-01-27 21:17:00,-5.8,-8.9,30.32,NNW,337,2.7,-999.0,86,-99.99,,,0.00,Acu-Link.com,2013-01-28 02:17:00,
2013-01-27 21:33:00,-6.5,-9.8,30.32,SSE,157,0.0,-999.0,85,-99.99,,,0.00,Acu-Link.com,2013-01-28 02:33:00,
2013-01-27 21:48:00,-7.4,-10.5,30.30,ESE,112,0.0,-999.0,86,-99.99,,,0.00,Acu-Link.com,2013-01-28 02:48:00,
2013-01-27 22:03:00,-8.0,-10.8,30.31,WNW,292,0.0,-999.0,87,-99.99,,,0.00,Acu-Link.com,2013-01-28 03:03:00,
2013-01-27 22:18:00,-8.1,-10.5,30.30,NE,45,0.0,-999.0,89,-99.99,,,0.00,Acu-Link.com,2013-01-28 03:18:00,
2013-01-27 22:34:00,-8.5,-11.1,30.30,West,270,0.0,-999.0,88,-99.99,,,0.00,Acu-Link.com,2013-01-28 03:34:00,
2013-01-27 22:49:00,-8.9,-11.2,30.30,ESE,112,0.0,-999.0,89,-99.99,,,0.00,Acu-Link.com,2013-01-28 03:49:00,
2013-01-27 23:04:00,-9.0,-11.3,30.30,NNE,22,0.0,-999.0,89,-99.99,,,0.00,Acu-Link.com,2013-01-28 04:04:00,
2013-01-27 23:19:00,-9.8,-12.4,30.30,West,270,0.0,-999.0,88,-99.99,,,0.00,Acu-Link.com,2013-01-28 04:19:00,
2013-01-27 23:34:00,-10.3,-12.6,30.31,East,90,0.0,-999.0,89,-99.99,,,0.00,Acu-Link.com,2013-01-28 04:34:00,
2013-01-27 23:50:00,-10.8,-13.3,30.31,WNW,292,0.0,-999.0,88,-99.99,,,0.00,Acu-Link.com,2013-01-28 04:50:00,